Powrót do katalogu

TELKOM-4

AktywnyŁącznośćGEO
NORAD 43587·PAYLOAD·🇮🇩 Indonesia

Wystrzelony Aug 7, 2018 z Cape Canaveral Space Force Station

Loading…

TLE

ŚwieżeSource: Space-Track

Epoka: Sep 14, 2026, 14:18 UTC

1 43587U 18064A   26257.59650777 -.00000352  00000-0  00000-0 0  9995
2 43587   0.0193 181.7428 0001191 349.9565 144.6205  1.00272038 29776

Śledź TELKOM-4 w czasie rzeczywistym z AllMySat

Download on the App Store